Location: A�t �Alizem
(31.2076°N, 8.7872°W)
Time: 05:55:40
(UTC+00:00)

Cosmos 1328 Rocket - Pass Details

Date: 27 November 2020
Orbit: 601 x 627 km, 82.5° (Epoch: 25 January)

Event Time Altitude Azimuth Distance (km) Brightness Sun altitude
Rises 18:03:55 0° 172° (S) 2,834 7.1 -7.0°
Reaches altitude 10° 18:06:10 10° 166° (SSE) 1,936 6.2 -7.5°
Maximum altitude 18:10:16 46° 93° (E) 808 3.8 -8.3°
Drops below altitude 10° 18:14:24 10° 19° (NNE) 1,955 5.8 -9.1°
Sets 18:16:41 0° 14° (NNE) 2,866 6.7 -9.6°
